Litchfield, IL

1:53 PM CST on February 24, 2017 (GMT -0600)
Litchfield

Weather History for K3LF - March, 2014

Change the Weather History Date:

Wednesday, March 5, 2014

  Actual Average (KALN) Record (KALN)
Temperature  
Mean Temperature 30 °F -  
Max Temperature 38 °F 45 °F 66 °F (2009)
Min Temperature 21 °F 29 °F 7 °F (2015)
Degree Days  
Heating Degree Days 36    
Moisture  
Dew Point 20 °F    
Average Humidity 72    
Maximum Humidity 90    
Minimum Humidity 45    
Precipitation  
Precipitation 0.00 in - - ()
Sea Level Pressure  
Sea Level Pressure 30.23 in    
Wind  
Wind Speed 4 mph (NE)    
Max Wind Speed 15 mph    
Max Gust Speed 18 mph    
Visibility 10 miles    
Events      
Averages and records for this station are not official NWS values.
T = Trace of Precipitation, MM = Missing Value Source: NWS Daily Summary

Daily Weather History Graph

Daily Weather History Graph

Search for Another Location

Airport or City:

Trip Planner

Search our weather history database for the weather conditions in past years. The results will help you decide how hot, cold, wet, or windy it might be!

Date:

Astronomy

Mar. 05, 2014 Rise Set
Actual Time 6:25 AM CST 5:55 PM CST
Civil Twilight 5:58 AM CST 6:22 PM CST
Nautical Twilight 5:27 AM CST 6:53 PM CST
Astronomical Twilight 4:56 AM CST 7:24 PM CST
Moon 8:53 AM CST (3/5) 11:01 PM CST (3/5)
Length of Visible Light 12h 23m
Length of Day
11h 30m
Waxing Crescent, 23% of the Moon is Illuminated
Mar 5
Waxing Crescent
Mar 8
First Quarter
Mar 16
Full
Mar 23
Last Quarter
Mar 30
New

Hourly Weather History & Observations

Time (CST) Temp. Windchill Dew Point Humidity Pressure Visibility Wind Dir Wind Speed Gust Speed Precip Events Conditions
12:15 AM 24.6 °F - 17.6 °F 75% 30.15 in 10.0 mi Calm Calm - N/A   Clear
12:35 AM 24.6 °F - 18.0 °F 76% 30.15 in 10.0 mi Calm Calm - N/A   Clear
12:50 AM 24.3 °F - 17.6 °F 76% 30.16 in 10.0 mi Calm Calm - N/A   Clear
1:15 AM 23.2 °F - 16.9 °F 77% 30.16 in 10.0 mi Calm Calm - N/A   Clear
1:35 AM 22.8 °F - 17.4 °F 80% 30.17 in 10.0 mi Calm Calm - N/A   Clear
1:55 AM 22.8 °F - 16.9 °F 78% 30.16 in 10.0 mi Calm Calm - N/A   Clear
2:15 AM 23.2 °F - 17.2 °F 78% 30.16 in 10.0 mi Calm Calm - N/A   Clear
2:35 AM 23.0 °F - 17.8 °F 80% 30.16 in 10.0 mi Calm Calm - N/A   Clear
2:55 AM 22.8 °F - 17.6 °F 80% 30.16 in 10.0 mi Calm Calm - N/A   Clear
3:15 AM 23.0 °F - 17.4 °F 79% 30.17 in 10.0 mi Calm Calm - N/A   Clear
3:35 AM 22.6 °F - 17.1 °F 79% 30.18 in 10.0 mi Calm Calm - N/A   Clear
3:55 AM 22.5 °F - 17.1 °F 80% 30.18 in 10.0 mi Calm Calm - N/A   Clear
4:15 AM 22.6 °F - 17.1 °F 79% 30.19 in 10.0 mi Calm Calm - N/A   Clear
4:35 AM 22.5 °F - 16.5 °F 78% 30.20 in 10.0 mi Calm Calm - N/A   Clear
4:55 AM 22.5 °F - 16.7 °F 79% 30.20 in 10.0 mi Calm Calm - N/A   Clear
5:15 AM 22.1 °F - 16.7 °F 80% 30.20 in 10.0 mi Calm Calm - N/A   Clear
5:30 AM 22.1 °F - 16.7 °F 80% 30.20 in 10.0 mi Calm Calm - N/A   Clear
5:55 AM 21.9 °F - 16.7 °F 80% 30.20 in 10.0 mi Calm Calm - N/A   Clear
6:15 AM 21.9 °F - 16.7 °F 80% 30.20 in 10.0 mi Calm Calm - N/A   Clear
6:35 AM 22.1 °F - 17.1 °F 81% 30.21 in 10.0 mi Calm Calm - N/A   Clear
6:55 AM 22.6 °F - 17.4 °F 80% 30.21 in 10.0 mi Calm Calm - N/A   Clear
7:03 AM 23.0 °F - 17.6 °F 80% 30.22 in 10.0 mi Calm Calm - N/A   Clear
7:15 AM 23.5 °F - 17.6 °F 78% 30.22 in 10.0 mi Calm Calm - N/A   Clear
7:35 AM 24.1 °F - 18.0 °F 77% 30.22 in 10.0 mi Calm Calm - N/A   Clear
7:55 AM 25.0 °F - 18.3 °F 76% 30.23 in 10.0 mi Calm Calm - N/A   Clear
8:15 AM 27.1 °F - 19.4 °F 73% 30.24 in 10.0 mi Calm Calm - N/A   Clear
8:35 AM 27.9 °F - 19.6 °F 71% 30.24 in 10.0 mi Calm Calm - N/A   Clear
8:55 AM 29.7 °F - 20.3 °F 68% 30.25 in 10.0 mi Calm Calm - N/A   Clear
9:15 AM 30.0 °F - 20.3 °F 67% 30.25 in 10.0 mi Calm Calm - N/A   Clear
9:35 AM 30.9 °F 21.7 °F 20.8 °F 66% 30.26 in 10.0 mi East 11.5 mph - N/A   Clear
9:55 AM 31.8 °F 22.8 °F 21.0 °F 64% 30.26 in 10.0 mi East 11.5 mph - N/A   Clear
10:15 AM 32.9 °F 25.3 °F 21.4 °F 63% 30.26 in 10.0 mi East 9.2 mph - N/A   Clear
10:35 AM 33.1 °F 26.9 °F 21.2 °F 62% 30.26 in 10.0 mi East 6.9 mph - N/A   Clear
10:55 AM 34.2 °F 25.7 °F 22.1 °F 61% 30.26 in 10.0 mi East 11.5 mph - N/A   Clear
11:15 AM 34.2 °F 26.8 °F 19.9 °F 56% 30.25 in 10.0 mi East 9.2 mph - N/A   Clear
11:35 AM 34.7 °F 28.1 °F 19.2 °F 53% 30.25 in 10.0 mi East 8.1 mph - N/A   Clear
11:55 AM 35.6 °F 28.0 °F 19.2 °F 51% 30.25 in 10.0 mi East 10.4 mph - N/A   Clear
12:15 PM 36.1 °F 29.9 °F 19.0 °F 50% 30.24 in 10.0 mi East 8.1 mph - N/A   Clear
12:35 PM 37.0 °F 30.4 °F 19.8 °F 50% 30.23 in 10.0 mi ESE 9.2 mph - N/A   Clear
12:55 PM 36.0 °F 30.3 °F 19.8 °F 52% 30.23 in 10.0 mi ENE 6.9 mph - N/A   Clear
1:15 PM 36.9 °F 30.7 °F 19.8 °F 50% 30.22 in 10.0 mi NE 8.1 mph - N/A   Clear
1:35 PM 37.9 °F 32.7 °F 20.5 °F 49% 30.22 in 10.0 mi ENE 6.9 mph - N/A   Clear
1:55 PM 37.9 °F 32.7 °F 18.1 °F 45% 30.22 in 10.0 mi ENE 6.9 mph - N/A   Clear
2:15 PM 38.8 °F 33.2 °F 23.5 °F 54% 30.22 in 10.0 mi ENE 8.1 mph - N/A   Clear
2:35 PM 38.1 °F 31.7 °F 22.5 °F 53% 30.22 in 10.0 mi NE 9.2 mph - N/A   Clear
2:55 PM 36.9 °F 28.2 °F 25.0 °F 62% 30.22 in 10.0 mi NE 13.8 mph - N/A   Clear
3:15 PM 35.4 °F 27.3 °F 23.9 °F 63% 30.23 in 10.0 mi NE 11.5 mph - N/A   Clear
3:35 PM 35.1 °F 25.5 °F 23.5 °F 63% 30.23 in 10.0 mi NE 15.0 mph - N/A   Clear
3:55 PM 34.9 °F 26.2 °F 23.5 °F 63% 30.23 in 10.0 mi NE 12.7 mph 17.3 mph N/A   Clear
4:15 PM 34.2 °F 25.7 °F 25.2 °F 70% 30.24 in 10.0 mi NE 11.5 mph - N/A   Clear
4:35 PM 33.8 °F 23.9 °F 24.8 °F 70% 30.24 in 10.0 mi NE 15.0 mph - N/A   Clear
4:55 PM 33.1 °F 23.9 °F 24.8 °F 72% 30.24 in 10.0 mi NE 12.7 mph 17.3 mph N/A   Clear
5:15 PM 32.7 °F 25.0 °F 24.6 °F 72% 30.25 in 10.0 mi NE 9.2 mph 18.4 mph N/A   Clear
5:35 PM 32.0 °F 22.5 °F 24.8 °F 75% 30.25 in 10.0 mi NE 12.7 mph - N/A   Clear
5:55 PM 31.6 °F 22.1 °F 24.4 °F 75% 30.26 in 10.0 mi NE 12.7 mph - N/A   Clear
6:15 PM 30.9 °F 21.2 °F 23.9 °F 75% 30.27 in 10.0 mi NE 12.7 mph 18.4 mph N/A   Clear
6:35 PM 30.6 °F 20.2 °F 23.7 °F 76% 30.27 in 10.0 mi NE 13.8 mph 17.3 mph N/A   Clear
6:55 PM 30.2 °F 20.2 °F 23.0 °F 75% 30.28 in 10.0 mi ENE 12.7 mph 18.4 mph N/A   Clear
7:15 PM 30.0 °F 20.0 °F 22.1 °F 72% 30.27 in 10.0 mi NE 12.7 mph - N/A   Clear
7:35 PM 29.7 °F 19.6 °F 21.9 °F 73% 30.27 in 10.0 mi NE 12.7 mph - N/A   Clear
7:55 PM 29.1 °F 20.6 °F 23.0 °F 78% 30.28 in 10.0 mi NE 9.2 mph - N/A   Clear
8:15 PM 28.8 °F 20.2 °F 23.0 °F 79% 30.28 in 10.0 mi NE 9.2 mph - N/A   Scattered Clouds
8:35 PM 28.4 °F 19.7 °F 22.6 °F 79% 30.28 in 10.0 mi NE 9.2 mph - N/A   Scattered Clouds
8:55 PM 27.5 °F 18.6 °F 23.0 °F 83% 30.29 in 10.0 mi NE 9.2 mph - N/A   Clear
9:15 PM 27.5 °F 18.0 °F 23.0 °F 83% 30.30 in 10.0 mi NE 10.4 mph - N/A   Clear
9:35 PM 27.1 °F 16.9 °F 23.0 °F 84% 30.30 in 10.0 mi NE 11.5 mph - N/A   Clear
9:55 PM 26.6 °F 17.5 °F 23.0 °F 86% 30.31 in 7.0 mi NE 9.2 mph - N/A   Clear
10:15 PM 26.6 °F 18.2 °F 23.0 °F 86% 30.31 in 7.0 mi NE 8.1 mph - N/A   Clear
10:35 PM 26.1 °F 16.2 °F 23.0 °F 88% 30.31 in 7.0 mi NNE 10.4 mph - N/A   Clear
10:55 PM 25.7 °F 16.4 °F 23.0 °F 89% 30.31 in 7.0 mi NNE 9.2 mph - N/A   Clear
11:15 PM 25.5 °F 16.2 °F 22.6 °F 89% 30.31 in 7.0 mi NE 9.2 mph - N/A   Clear
11:35 PM 25.2 °F 14.4 °F 22.6 °F 90% 30.30 in 7.0 mi NE 11.5 mph - N/A   Clear
11:55 PM 25.3 °F 14.7 °F 22.3 °F 88% 30.31 in 7.0 mi NE 11.5 mph - N/A   Clear